Change the Weather History Date:

Wednesday, December 14, 2011

  Actual Average Record
Temperature  
Mean Temperature 51 °F 32 °F  
Max Temperature 58 °F 40 °F 60 °F (2006)
Min Temperature 43 °F 24 °F 1 °F (2010)
Degree Days  
Heating Degree Days 14 33  
Month to date heating degree days 392 430  
Since 1 July heating degree days 1314 1486  
Cooling Degree Days 0 0  
Month to date cooling degree days 0 0  
Year to date cooling degree days 1170 927  
Moisture  
Dew Point 48 °F    
Average Humidity 90    
Maximum Humidity 100    
Minimum Humidity 80    
Precipitation  
Precipitation 0.50 in 0.08 in 0.86 in (2001)
Month to date precipitation 1.78 1.45  
Year to date precipitation 52.64 45.46  
Sea Level Pressure  
Sea Level Pressure 30.13 in    
Wind  
Wind Speed 8 mph (SSE)    
Max Wind Speed 17 mph    
Max Gust Speed 25 mph    
Visibility 4 miles    
Events Fog , Rain , Thunderstorm    
T = Trace of Precipitation, MM = Missing Value Source: NWS Daily Summary

Daily Weather History Graph

Daily Weather History Graph

Search for Another Location

Airport or City:

Trip Planner

Search our weather history database for the weather conditions in past years. The results will help you decide how hot, cold, wet, or windy it might be!

Date:

Astronomy

Dec. 14, 2011 Rise Set
Actual Time 7:57 AM EST 5:24 PM EST
Civil Twilight 7:27 AM EST 5:54 PM EST
Nautical Twilight 6:54 AM EST 6:27 PM EST
Astronomical Twilight 6:21 AM EST 7:00 PM EST
Moon 9:42 PM EST (12/14) 10:43 AM EST (12/14)
Length of Visible Light 10h 26m
Length of Day
9h 26m
Waning Gibbous, 83% of the Moon is Illuminated
Dec 14
Waning Gibbous
Dec 17
Last Quarter
Dec 24
New
Jan 1
First Quarter
Jan 9
Full

Hourly Weather History & Observations

Time (EST) Temp. Windchill Dew Point Humidity Pressure Visibility Wind Dir Wind Speed Gust Speed Precip Events Conditions
12:04 AM 42.8 °F 40.1 °F 42.8 °F 100% 30.30 in 1.8 mi SSE 4.6 mph - 0.00 in Rain Light Rain
12:40 AM 44.6 °F 41.4 °F 42.8 °F 93% 30.29 in 1.8 mi SSE 5.8 mph - 0.00 in Rain Light Rain
12:53 AM 44.1 °F 40.8 °F 42.1 °F 93% 30.29 in 2.0 mi SSE 5.8 mph - 0.00 in   Overcast
1:05 AM 44.6 °F 42.2 °F 42.8 °F 93% 30.28 in 1.8 mi SSE 4.6 mph - N/A   Overcast
1:17 AM 44.6 °F 42.2 °F 42.8 °F 93% 30.28 in 2.0 mi SSE 4.6 mph - N/A   Overcast
1:33 AM 44.6 °F 42.2 °F 42.8 °F 93% 30.28 in 2.0 mi SSE 4.6 mph - N/A   Overcast
1:53 AM 44.1 °F - 43.0 °F 96% 30.29 in 2.0 mi Calm Calm - N/A   Overcast
2:23 AM 44.6 °F 42.2 °F 42.8 °F 93% 30.27 in 1.5 mi ESE 4.6 mph - 0.00 in Rain Light Rain
2:37 AM 44.6 °F 42.2 °F 42.8 °F 93% 30.27 in 2.0 mi SE 4.6 mph - 0.00 in Rain Light Rain
2:53 AM 44.1 °F 42.5 °F 43.0 °F 96% 30.28 in 1.8 mi ESE 3.5 mph - 0.00 in   Overcast
3:05 AM 44.6 °F 43.1 °F 42.8 °F 93% 30.26 in 1.8 mi ESE 3.5 mph - 0.00 in Rain Light Rain
3:22 AM 44.6 °F 41.4 °F 42.8 °F 93% 30.26 in 2.0 mi SSE 5.8 mph - 0.00 in Rain Light Rain
3:42 AM 44.6 °F 43.1 °F 42.8 °F 93% 30.26 in 2.0 mi SSE 3.5 mph - 0.00 in Rain Light Rain
3:51 AM 44.6 °F 42.2 °F 42.8 °F 93% 30.26 in 1.8 mi SSE 4.6 mph - 0.00 in Rain Light Rain
3:53 AM 44.1 °F 41.5 °F 43.0 °F 96% 30.27 in 1.8 mi SSE 4.6 mph - 0.00 in Rain Light Rain
4:34 AM 44.6 °F 40.7 °F 42.8 °F 93% 30.23 in 2.0 mi SSE 6.9 mph - 0.01 in   Overcast
4:43 AM 44.6 °F 40.2 °F 42.8 °F 93% 30.23 in 2.0 mi SSE 8.1 mph - 0.01 in   Overcast
4:53 AM 44.1 °F 39.5 °F 43.0 °F 96% 30.24 in 2.0 mi SSE 8.1 mph - 0.01 in   Overcast
5:02 AM 44.6 °F 40.2 °F 42.8 °F 93% 30.22 in 1.8 mi SSE 8.1 mph - N/A   Overcast
5:34 AM 44.6 °F 41.4 °F 42.8 °F 93% 30.21 in 2.0 mi SSE 5.8 mph - N/A   Overcast
5:53 AM 45.0 °F 40.1 °F 43.0 °F 93% 30.20 in 2.5 mi SE 9.2 mph - N/A   Mostly Cloudy
6:53 AM 45.0 °F 40.6 °F 44.1 °F 97% 30.20 in 2.5 mi SSE 8.1 mph - N/A   Overcast
7:32 AM 44.6 °F 40.7 °F 44.6 °F 100% 30.20 in 1.8 mi SSE 6.9 mph - N/A   Overcast
7:48 AM 44.6 °F 40.2 °F 44.6 °F 100% 30.19 in 0.5 mi SSE 8.1 mph - N/A Fog Fog
7:53 AM 45.0 °F 40.6 °F 44.1 °F 97% 30.21 in 0.5 mi SSE 8.1 mph - N/A Fog Fog
8:53 AM 46.0 °F 41.9 °F 45.0 °F 96% 30.19 in 1.2 mi SSE 8.1 mph - N/A   Overcast
9:53 AM 46.9 °F - 46.0 °F 97% 30.19 in 1.8 mi SSE 6.9 mph - N/A   Overcast
10:14 AM 48.2 °F - 46.4 °F 93% 30.18 in 2.0 mi South 5.8 mph - N/A   Overcast
10:34 AM 48.2 °F - 48.2 °F 100% 30.18 in 3.0 mi South 6.9 mph - N/A   Overcast
10:53 AM 50.0 °F - 48.9 °F 96% 30.17 in 4.0 mi SSE 6.9 mph - N/A   Overcast
11:53 AM 53.1 °F - 50.0 °F 89% 30.16 in 7.0 mi SSW 9.2 mph - N/A   Overcast
12:53 PM 54.0 °F - 51.1 °F 90% 30.12 in 8.0 mi SSW 9.2 mph - N/A   Overcast
1:53 PM 55.0 °F - 51.1 °F 86% 30.08 in 10.0 mi SSW 13.8 mph 20.7 mph N/A   Overcast
2:53 PM 55.9 °F - 52.0 °F 87% 30.05 in 10.0 mi South 13.8 mph 19.6 mph N/A   Overcast
3:53 PM 57.0 °F - 52.0 °F 83% 30.03 in 10.0 mi South 8.1 mph - N/A   Overcast
4:53 PM 57.0 °F - 52.0 °F 83% 30.02 in 10.0 mi SSW 15.0 mph 20.7 mph N/A   Overcast
5:53 PM 57.0 °F - 52.0 °F 83% 30.02 in 10.0 mi SSW 13.8 mph 21.9 mph N/A   Overcast
6:45 PM 57.2 °F - 51.8 °F 82% 30.01 in 10.0 mi SSW 13.8 mph 20.7 mph N/A   Overcast
6:53 PM 57.9 °F - 52.0 °F 81% 30.01 in 10.0 mi SSW 9.2 mph 18.4 mph N/A   Overcast
7:53 PM 57.0 °F - 52.0 °F 83% 30.02 in 10.0 mi South 5.8 mph - N/A   Overcast
8:53 PM 55.9 °F - 53.1 °F 90% 29.98 in 9.0 mi SE 3.5 mph - 0.02 in Rain Light Rain
9:00 PM 55.4 °F - 53.6 °F 94% 29.98 in 7.0 mi Calm Calm - 0.00 in Rain Rain
9:32 PM 53.6 °F - 51.8 °F 94% 29.97 in 3.0 mi SE 5.8 mph - 0.03 in Rain Rain
9:53 PM 54.0 °F - 53.1 °F 97% 29.96 in 4.0 mi SSE 5.8 mph - 0.05 in Rain Light Rain
10:36 PM 53.6 °F - 53.6 °F 100% 29.93 in 7.0 mi SSE 8.1 mph - 0.02 in Rain Light Rain
10:53 PM 54.0 °F - 53.1 °F 97% 29.92 in 5.0 mi SSE 9.2 mph - 0.05 in Rain Light Rain
11:06 PM 53.6 °F - 53.6 °F 100% 29.91 in 5.0 mi SSE 10.4 mph - 0.02 in Rain , Thunderstorm Light Rain
11:19 PM 53.6 °F - 53.6 °F 100% 29.91 in 2.5 mi South 9.2 mph - 0.15 in Rain , Thunderstorm Heavy Rain
11:27 PM 53.6 °F - 53.6 °F 100% 29.93 in 2.0 mi South 9.2 mph - 0.22 in Rain Heavy Rain
11:29 PM 55.4 °F - 53.6 °F 94% 29.93 in 2.0 mi South 9.2 mph - 0.24 in Rain , Thunderstorm Heavy Thunderstorms and Rain
11:34 PM 55.4 °F - 53.6 °F 94% 29.93 in 3.0 mi South 15.0 mph 19.6 mph 0.26 in Rain , Thunderstorm Heavy Thunderstorms and Rain
11:47 PM 55.4 °F - 53.6 °F 94% 29.93 in 3.0 mi SSW 12.7 mph - 0.32 in Rain Rain
11:53 PM 55.9 °F - 54.0 °F 93% 29.93 in 2.5 mi SSW 12.7 mph 21.9 mph 0.35 in Rain Heavy Rain